AirNav   Air Wisconsin pilot careers
 
 1104 users online  

8NA0 Tappen Airstrip
Tappen, North Dakota, USA

GOING TO TAPPEN?


FAA INFORMATION EFFECTIVE 21 JUNE 2018

Location

FAA Identifier: 8NA0
Lat/Long: 46-52-51.9450N / 099-37-51.3870W
46-52.865750N / 099-37.856450W
46.8810958 / -99.6309408
(estimated)
Elevation: 1780 ft. / 543 m (estimated)
Variation: 08E (1986)
Time zone: UTC -5 (UTC -6 during Standard Time)
Zip code: 58487

Airport Operations

Airport use: Private use. Permission required prior to landing
Activation date: 04/1986
Control tower: no
ARTCC: MINNEAPOLIS CENTER
FSS: GRAND FORKS FLIGHT SERVICE STATION
Attendance: UNATNDD
Wind indicator: yes
Segmented circle: no

Nearby radio navigation aids

VOR radial/distance  VOR name  Freq  Var
JMSr261/39.2JAMESTOWN VOR/DME114.5004E

Airport Services

Runway Information

Runway 10/28

Dimensions: 2100 x 50 ft. / 640 x 15 m
Surface: turf
RUNWAY 10  RUNWAY 28
Traffic pattern: leftleft
Obstructions: bldgs, 50 ft. from runwaynone

Airport Ownership and Management from official FAA records

Ownership: Privately-owned
Owner: MARVIN BODVIG
RR, BOX 65
TAPPEN, ND 58487
Phone 701-327-4222
Manager: MARVIN BODVIG
RR, BOX 65
TAPPEN, ND 58487
Phone 701-327-4222

Airport Operational Statistics

Aircraft based on the field: 1
Single engine airplanes: 1
    

Additional Remarks

FARMSTEAD AT WEST RWY THR END.

Instrument Procedures

There are no published instrument procedures at 8NA0.

Some nearby airports with instrument procedures:

KJMS - Jamestown Regional Airport (39 nm E)
46D - Carrington Municipal Airport (39 nm NE)
KBIS - Bismarck Municipal Airport (46 nm W)
7L2 - Linton Municipal Airport (47 nm SW)
51D - Edgeley Municipal Airport (49 nm SE)
 
Loc | Ops | Rwys | IFR | FBO | Links
Com | Nav | Svcs | Stats | Notes

Mandan Aero Center
 
Area around 8NA0 (Tappen Airstrip)
 
Road maps at: MapQuest Bing Google
 
Aerial photo
No photo
 
Sectional chart

 
Airport distance calculator
Flying to Tappen Airstrip? Find the distance to fly.

From to 8NA0

Sunrise and sunset
Times for 22-Jun-2018
 Local
(UTC-5)
 Zulu
(UTC)
Morning civil twilight05:0510:05
Sunrise05:4510:45
Sunset21:3602:36
Evening civil twilight22:1603:16

Current date and time
Zulu (UTC)  22-Jun-2018 12:44:57
Local (UTC-5)  22-Jun-2018 07:44:57
 
METAR
K46D 
39nm NE 
221235Z AUTO 00000KT 10SM SCT075 20/18 A2991 RMK AO2
KJMS 
40nm E 
221156Z AUTO 00000KT 10SM CLR 18/17 A2988 RMK AO2 SLP111 T01830167 10200 20172 56003
KBIS 
46nm W 
221152Z 06005KT 10SM CLR 15/12 A2990 RMK AO2 SLP116 T01500122 10161 20133 58005
K7L2 
47nm SW 
221235Z AUTO 12006KT 10SM 17/17 A2992 RMK AO2
TAF
KJMS 
40nm E 
221122Z 2212/2312 VRB02KT P6SM FEW070 SCT250 FM221500 17006KT P6SM SKC FM222100 15010KT P6SM SCT200
KBIS 
46nm W 
221122Z 2212/2312 12003KT P6SM FEW250 FM221500 16008KT P6SM FEW050 SCT200 FM221800 17011KT P6SM FEW060 SCT110 FM222100 17011KT P6SM VCSH SCT060 BKN080 FM230100 14008KT P6SM VCSH SCT060 BKN090
NOTAMs
Click for the latest NOTAMs
NOTAMs are issued by the DoD/FAA and will open in a separate window not controlled by AirNav.

 

 
 

Would you like to see your business listed on this page?

 If your business provides an interesting product or service to pilots, flight crews, aircraft, or users of the Tappen Airstrip, you should consider listing it here.  To start the listing process, click on the button below
 
Add a business
 

Other Pages about Tappen Airstrip

Update a link
 
Copyright © AirNav, LLC. All rights reserved. Privacy Policy  Contact